Weather History for Crestview, FL

Change the Weather History Date:

Thursday, March 28, 2013

  Actual Average Record
Temperature  
Mean Temperature 50 °F -  
Max Temperature 71 °F - - ()
Min Temperature 30 °F - - ()
Degree Days  
Heating Degree Days 15    
Moisture  
Dew Point 32 °F    
Average Humidity 57    
Maximum Humidity 94    
Minimum Humidity 19    
Precipitation  
Precipitation 0.00 in - - ()
Sea Level Pressure  
Sea Level Pressure 30.31 in    
Wind  
Wind Speed 2 mph (NW)    
Max Wind Speed 12 mph    
Max Gust Speed -    
Visibility 10 miles    
Events      
T = Trace of Precipitation, MM = Missing Value Source: NWS Daily Summary

Daily Weather History Graph

Daily Weather History Graph

Search for Another Location

Airport:

Trip Planner

Search our weather history database for the weather conditions in past years. The results will help you decide how hot, cold, wet, or windy it might be!

Date:

Astronomy

Mar. 28, 2013 Rise Set
Actual Time 6:39 AM CDT 7:02 PM CDT
Civil Twilight 6:15 AM CDT 7:26 PM CDT
Nautical Twilight 5:47 AM CDT 7:55 PM CDT
Astronomical Twilight 5:18 AM CDT 8:23 PM CDT
Moon 8:43 PM CDT (3/28) 7:15 AM CDT (3/28)
Length of Visible Light 13h 11m
Length of Day
12h 23m
Full, 98% of the Moon is Illuminated
Mar 28
Full
Apr 2
Last Quarter
Apr 10
New
Apr 18
First Quarter
Apr 25
Full

Hourly Weather History & Observations

Time (CDT) Temp. Dew Point Humidity Pressure Visibility Wind Dir Wind Speed Gust Speed Precip Events Conditions
12:58 AM 36.0 °F 33.3 °F 90% 30.31 in 10.0 mi Calm Calm - N/A   Clear
1:58 AM 34.0 °F 32.0 °F 92% 30.31 in 10.0 mi Calm Calm - N/A   Clear
2:58 AM 34.2 °F 32.2 °F 92% 30.31 in 10.0 mi Calm Calm - N/A   Clear
3:58 AM 32.5 °F 30.4 °F 92% 30.31 in 10.0 mi North 2.3 mph - N/A   Clear
4:58 AM 32.5 °F 30.9 °F 94% 30.31 in 10.0 mi Calm Calm - N/A   Clear
5:58 AM 30.6 °F 28.8 °F 93% 30.33 in 10.0 mi Calm Calm - N/A   Clear
6:58 AM 30.7 °F 29.3 °F 94% 30.34 in 10.0 mi Calm Calm - N/A   Clear
7:58 AM 39.2 °F 31.8 °F 75% 30.36 in 10.0 mi North 2.3 mph - N/A   Clear
8:55 AM 48.6 °F 31.1 °F 51% 30.37 in 10.0 mi NNE 4.6 mph - N/A   Clear
9:55 AM 57.2 °F 28.6 °F 34% 30.36 in 10.0 mi NNE 5.8 mph - N/A   Clear
10:55 AM 61.5 °F 26.6 °F 27% 30.36 in 10.0 mi East 4.6 mph - N/A   Clear
11:55 AM 63.7 °F 27.0 °F 25% 30.35 in 10.0 mi NW 4.6 mph - N/A   Clear
12:55 PM 65.8 °F 27.5 °F 24% 30.32 in 10.0 mi Calm Calm - N/A   Clear
1:55 PM 68.0 °F 26.6 °F 21% 30.28 in 10.0 mi SE 1.2 mph - N/A   Partly Cloudy
2:55 PM 70.0 °F 25.5 °F 19% 30.26 in 10.0 mi NNW 11.5 mph - N/A   Partly Cloudy
3:55 PM 70.2 °F 26.4 °F 19% 30.23 in 10.0 mi NNW 1.2 mph - N/A   Partly Cloudy
4:55 PM 67.3 °F 35.1 °F 30% 30.24 in 10.0 mi SSW 11.5 mph - N/A   Partly Cloudy
5:55 PM 65.5 °F 35.2 °F 33% 30.25 in 10.0 mi SW 9.2 mph - N/A   Partly Cloudy
6:55 PM 60.4 °F 37.6 °F 43% 30.26 in 10.0 mi SSW 6.9 mph - N/A   Partly Cloudy
7:55 PM 55.0 °F 39.0 °F 55% 30.28 in 10.0 mi SSW 4.6 mph - N/A   Partly Cloudy
8:55 PM 52.3 °F 39.2 °F 61% 30.29 in 10.0 mi SW 2.3 mph - N/A   Partly Cloudy
9:55 PM 48.7 °F 37.8 °F 66% 30.30 in 10.0 mi West 3.5 mph - N/A   Partly Cloudy
10:55 PM 48.6 °F 38.3 °F 68% 30.32 in 10.0 mi NNW 1.2 mph - N/A   Clear
11:55 PM 45.1 °F 37.8 °F 75% 30.32 in 10.0 mi North 1.2 mph - N/A   Clear